KD4LXC-1 Weather Reports


time (UTC)temp
C
wind
direction
speed
KPH
gust
KPH
rain 1hr
cm
rain 24hr
cm
rain mn
cm
humidity
%
barometer
mb
20260507152450 15 1 0.0 0.0 0.00 0.00 0.00 50 891.9
20260507151241 15 3 0.0 0.0 0.00 0.00 0.00 49 891.8
20260507150032 15 353 0.0 0.0 0.00 0.00 0.00 49 891.7
20260507144823 15 356 0.0 0.0 0.00 0.00 0.00 49 891.7
20260507143614 14 356 0.0 0.0 0.00 0.00 0.00 49 891.6
20260507142405 14 1 0.0 0.0 0.00 0.00 0.00 49 891.9
20260507141156 14 0 0.0 0.0 0.00 0.00 0.00 49 891.7
20260507135947 14 8 0.0 0.0 0.00 0.00 0.00 49 891.8
20260507134738 14 11 0.0 0.0 0.00 0.00 0.00 50 891.8
20260507133529 15 10 0.0 0.0 0.00 0.00 0.00 51 891.7
20260507132320 15 353 0.0 0.0 0.00 0.00 0.00 52 891.6
20260507131111 15 0 0.0 0.0 0.00 0.00 0.00 52 891.5
20260507125902 15 350 0.0 0.0 0.00 0.00 0.00 51 891.3
20260507124653 16 342 0.0 0.0 0.00 0.00 0.00 50 891.4
20260507123444 16 13 0.0 0.0 0.00 0.00 0.00 49 891.3
20260507122235 16 6 0.0 0.0 0.00 0.00 0.00 48 891.2
20260507121026 16 30 0.0 0.0 0.00 0.00 0.00 47 891.1
20260507115817 16 42 0.0 0.0 0.00 0.00 0.00 46 891.0
20260507114608 16 28 0.0 0.0 0.00 0.00 0.00 45 890.9
20260507113358 16 44 0.0 0.0 0.00 0.00 0.00 45 890.8
20260507112150 16 63 0.0 0.0 0.00 0.00 0.00 43 890.7
20260507110940 16 58 0.0 0.0 0.00 0.00 0.00 43 890.8
20260507105732 16 49 0.0 0.0 0.00 0.00 0.00 42 890.8
20260507104522 16 44 0.0 0.0 0.00 0.00 0.00 42 890.9
20260507103313 17 3 0.0 0.0 0.00 0.00 0.00 42 890.7
20260507102104 17 51 0.0 0.0 0.00 0.00 0.00 41 890.7
20260507100855 17 80 0.0 0.0 0.00 0.00 0.00 40 890.6
20260507095646 17 73 0.0 0.0 0.00 0.00 0.00 40 890.4
20260507094437 17 84 0.0 0.0 0.00 0.00 0.00 39 890.5
20260507093228 17 93 0.0 0.0 0.00 0.00 0.00 38 890.4
20260507090810 17 98 0.0 0.0 0.00 0.00 0.00 36 890.5
20260507085601 17 86 0.0 0.0 0.00 0.00 0.00 35 890.5
20260507084352 17 84 0.0 0.0 0.00 0.00 0.00 34 890.7
20260507083143 17 87 0.0 0.0 0.00 0.00 0.00 34 891.1
20260507081934 17 87 0.0 0.0 0.00 0.00 0.00 34 890.8
20260507080726 18 101 0.0 0.0 0.00 0.00 0.00 34 890.9
20260507075516 18 72 0.0 0.0 0.00 0.00 0.00 34 890.9
20260507074307 18 90 0.0 0.0 0.00 0.00 0.00 34 891.0
20260507073058 18 98 0.0 0.0 0.00 0.00 0.00 34 891.0
20260507071849 18 89 0.0 0.0 0.00 0.00 0.00 34 891.2
20260507070640 18 125 0.0 0.0 0.00 0.00 0.00 33 891.4
20260507065431 18 100 0.0 0.0 0.00 0.00 0.00 32 891.1
20260507064222 18 134 0.0 0.0 0.00 0.00 0.00 32 891.1
20260507063014 18 135 0.0 0.0 0.00 0.00 0.00 31 890.9
20260507061804 18 118 0.0 0.0 0.00 0.00 0.00 30 890.9
20260507060555 18 104 0.0 0.0 0.00 0.00 0.00 30 890.9
20260507055346 18 145 0.0 0.0 0.00 0.00 0.00 29 891.0
20260507054137 18 129 0.0 0.0 0.00 0.00 0.00 29 891.1
20260507052928 18 120 0.0 0.0 0.00 0.00 0.00 29 890.9
20260507051719 19 75 0.0 0.0 0.00 0.00 0.00 29 890.9
20260507050510 19 91 0.0 0.0 0.00 0.00 0.00 29 890.7
20260507045301 20 115 0.0 0.0 0.00 0.00 0.00 30 890.7
20260507044052 20 97 0.0 0.0 0.00 0.00 0.00 29 890.7
20260507042843 20 87 0.0 0.0 0.00 0.00 0.00 29 890.7
20260507041634 20 110 0.0 0.0 0.00 0.00 0.00 28 890.4
20260507040428 21 1178 0.0 0.0 0.00 0.00 0.00 28 890.4
20260507040425 21 98 0.0 0.0 0.00 0.00 0.00 28 890.4
20260507035216 21 135 0.0 0.0 0.00 0.00 0.00 26 890.4
20260507034007 21 132 0.0 0.0 0.00 0.00 0.00 25 890.3
20260507032758 21 91 0.0 0.0 0.00 0.00 0.00 24 890.2
20260507031549 21 86 0.0 0.0 0.00 0.00 0.00 23 890.1
20260507030340 22 142 0.0 0.0 0.00 0.00 0.00 21 890.0
20260507025131 22 132 0.0 0.0 0.00 0.00 0.00 20 889.8
20260507023922 22 89 0.0 0.0 0.00 0.00 0.00 18 889.8
20260507022713 22 134 0.0 0.0 0.00 0.00 0.00 17 889.6
20260507021504 23 101 0.0 0.0 0.00 0.00 0.00 15 889.3
20260507020255 23 70 0.0 0.0 0.00 0.00 0.00 14 889.3
20260507015045 23 80 0.0 0.0 0.00 0.00 0.00 13 889.1
20260507013836 23 89 0.0 0.0 0.00 0.00 0.00 11 888.9
20260507012627 23 105 0.0 0.0 0.00 0.00 0.00 10 888.8
20260507011418 23 138 0.0 0.0 0.00 0.00 0.00 10 888.6
20260507010209 24 186 0.0 0.0 0.00 0.00 0.00 10 888.5
20260507005000 24 156 0.0 0.0 0.00 0.00 0.00 9 888.4
20260507003751 24 179 0.0 0.0 0.00 0.00 0.00 9 888.3
20260507002542 25 180 0.0 0.0 0.00 0.00 0.00 9 888.0
20260507001333 25 207 0.0 0.0 0.00 0.00 0.00 8 887.9
20260507000124 25 219 0.0 0.0 0.00 0.00 0.00 8 887.9
20260506234915 25 180 0.0 0.0 0.00 0.00 0.00 8 888.2
20260506233706 26 197 0.0 0.0 0.00 0.00 0.00 7 888.0
20260506232457 26 183 0.0 0.0 0.00 0.00 0.00 7 888.0
20260506231248 26 35 0.0 0.0 0.00 0.00 0.00 7 887.8
20260506230039 26 146 0.0 0.0 0.00 0.00 0.00 7 887.9
20260506224830 26 186 0.0 0.0 0.00 0.00 0.00 6 887.9
20260506223621 26 312 0.0 0.0 0.00 0.00 0.00 6 887.8
20260506222412 26 172 0.0 0.0 0.00 0.00 0.00 6 887.8
20260506221203 26 200 0.0 0.0 0.00 0.00 0.00 6 887.8
20260506215954 27 176 0.0 0.0 0.00 0.00 0.00 5 887.7
20260506214745 27 177 0.0 0.0 0.00 0.00 0.00 5 887.8
20260506213536 27 183 0.0 0.0 0.00 0.00 0.00 5 888.0
20260506212327 27 204 0.0 0.0 0.00 0.00 0.00 5 888.2
20260506211118 27 163 0.0 0.0 0.00 0.00 0.00 5 887.9
20260506205909 27 173 0.0 0.0 0.00 0.00 0.00 5 888.3
20260506204700 27 198 0.0 0.0 0.00 0.00 0.00 5 888.3
20260506203451 27 231 0.0 0.0 0.00 0.00 0.00 5 888.0
20260506202242 27 183 0.0 0.0 0.00 0.00 0.00 6 888.3
20260506201033 27 191 0.0 0.0 0.00 0.00 0.00 7 888.5
20260506195824 27 183 0.0 0.0 0.00 0.00 0.00 7 888.4
20260506194615 27 210 0.0 0.0 0.00 0.00 0.00 8 888.7
20260506193406 27 179 0.0 0.0 0.00 0.00 0.00 8 889.0
20260506192157 27 203 0.0 0.0 0.00 0.00 0.00 8 888.9
20260506190948 27 233 0.0 0.0 0.00 0.00 0.00 9 889.1
20260506185739 27 183 0.0 0.0 0.00 0.00 0.00 9 889.3
20260506183321 26 224 0.0 0.0 0.00 0.00 0.00 11 889.4
20260506182112 26 293 0.0 0.0 0.00 0.00 0.00 12 889.4
20260506180903 25 319 0.0 0.0 0.00 0.00 0.00 13 889.7
20260506175654 25 353 0.0 0.0 0.00 0.00 0.00 13 889.3
20260506174445 25 354 0.0 0.0 0.00 0.00 0.00 13 889.5
20260506173236 24 356 0.0 0.0 0.00 0.00 0.00 14 889.5
20260506172027 24 353 0.0 0.0 0.00 0.00 0.00 14 889.7
20260506170818 25 0 0.0 0.0 0.00 0.00 0.00 14 889.5
20260506165609 25 356 0.0 0.0 0.00 0.00 0.00 14 889.6
20260506164359 25 354 0.0 0.0 0.00 0.00 0.00 14 889.5
20260506161941 24 356 0.0 0.0 0.00 0.00 0.00 15 889.2
20260506160732 24 0 0.0 0.0 0.00 0.00 0.00 15 889.2
20260506155523 24 0 0.0 0.0 0.00 0.00 0.00 16 889.4
20260506154314 24 354 0.0 0.0 0.00 0.00 0.00 16 889.1
20260506153323 23 0 0.0 0.0 0.00 0.00 0.00 16 889.2
20260506153105 23 0 0.0 0.0 0.00 0.00 0.00 16 889.2